Weather History for KMFD - February, 2013

Change the Weather History Date:

Wednesday, February 20, 2013

  Actual Average Record
Temperature  
Mean Temperature 18 °F 29 °F  
Max Temperature 20 °F 37 °F 66 °F (1930)
Min Temperature 15 °F 21 °F -12 °F (1936)
Degree Days  
Heating Degree Days 47 36  
Month to date heating degree days 787 751  
Since 1 July heating degree days 4099 4351  
Cooling Degree Days 0 0  
Month to date cooling degree days 0 0  
Year to date cooling degree days 0 0  
Moisture  
Dew Point 13 °F    
Average Humidity 76    
Maximum Humidity 84    
Minimum Humidity 67    
Precipitation  
Precipitation 0.02 in 0.08 in 0.48 in (1952)
Month to date precipitation 0.91 1.68  
Year to date precipitation 3.49 4.55  
Snow  
Snow 0.50 in 0.40 in - ()
Month to date snowfall 9.6 8.1  
Since 1 July snowfall 27.8 34.6  
Snow Depth 1.00 in    
Sea Level Pressure  
Sea Level Pressure 30.15 in    
Wind  
Wind Speed 12 mph (West)    
Max Wind Speed 22 mph    
Max Gust Speed 44 mph    
Visibility 5 miles    
Events Snow    
T = Trace of Precipitation, MM = Missing Value Source: NWS Daily Summary

Daily Weather History Graph

Daily Weather History Graph

Search for Another Location

Airport or City:

Trip Planner

Search our weather history database for the weather conditions in past years. The results will help you decide how hot, cold, wet, or windy it might be!

Date:

Astronomy

Feb. 20, 2013 Rise Set
Actual Time 7:17 AM EST 6:11 PM EST
Civil Twilight 6:49 AM EST 6:38 PM EST
Nautical Twilight 6:17 AM EST 7:10 PM EST
Astronomical Twilight 5:45 AM EST 7:42 PM EST
Moon 1:30 PM EST (2/20) 3:37 AM EST (2/20)
Length of Visible Light 11h 49m
Length of Day
10h 54m
Waxing Gibbous, 76% of the Moon is Illuminated
Feb 20
Waxing Gibbous
Feb 25
Full
Mar 4
Last Quarter
Mar 11
New
Mar 19
First Quarter

Hourly Weather History & Observations

Time (EST) Temp. Windchill Dew Point Humidity Pressure Visibility Wind Dir Wind Speed Gust Speed Precip Events Conditions
12:52 AM 15.1 °F -0.6 °F 8.1 °F 74% 30.04 in 10.0 mi West 16.1 mph 23.0 mph N/A   Overcast
1:52 AM 15.1 °F 1.1 °F 9.0 °F 77% 30.05 in 10.0 mi West 12.7 mph - N/A   Overcast
2:21 AM 15.8 °F 2.7 °F 8.6 °F 73% 29.99 in 10.0 mi West 11.5 mph 17.3 mph N/A   Overcast
2:52 AM 15.8 °F 1.4 °F 8.6 °F 73% 30.00 in 7.0 mi West 13.8 mph 20.7 mph N/A Snow Light Snow
3:52 AM 15.1 °F 0.5 °F 9.0 °F 77% 30.06 in 10.0 mi WSW 13.8 mph 20.7 mph 0.00 in   Overcast
4:20 AM 15.8 °F 1.4 °F 8.6 °F 73% 30.01 in 10.0 mi West 13.8 mph 21.9 mph N/A   Overcast
4:27 AM 15.8 °F 2.1 °F 8.6 °F 73% 30.01 in 9.0 mi WSW 12.7 mph 21.9 mph N/A   Overcast
4:52 AM 16.0 °F 1.7 °F 9.0 °F 74% 30.08 in 10.0 mi West 13.8 mph 23.0 mph N/A   Overcast
5:52 AM 16.0 °F 0.1 °F 9.0 °F 74% 30.10 in 6.0 mi West 17.3 mph 24.2 mph 0.00 in Snow Light Snow
6:52 AM 15.1 °F -1.1 °F 9.0 °F 77% 30.12 in 4.0 mi West 17.3 mph 24.2 mph 0.00 in Snow Light Snow
7:52 AM 15.1 °F -0.6 °F 9.0 °F 77% 30.14 in 6.0 mi WSW 16.1 mph 24.2 mph 0.00 in   Haze
8:52 AM 16.0 °F 1.1 °F 10.0 °F 77% 30.15 in 4.0 mi WSW 15.0 mph 21.9 mph 0.00 in Snow Light Snow
9:52 AM 17.1 °F 2.5 °F 10.0 °F 74% 30.16 in 5.0 mi West 15.0 mph 24.2 mph 0.00 in   Haze
10:52 AM 17.1 °F 2.0 °F 9.0 °F 71% 30.18 in 9.0 mi West 16.1 mph 23.0 mph 0.00 in   Overcast
11:12 AM 17.6 °F 5.0 °F 10.4 °F 73% 30.11 in 1.8 mi West 11.5 mph - 0.00 in Snow Light Snow
11:25 AM 17.6 °F 3.7 °F 10.4 °F 73% 30.11 in 2.5 mi WSW 13.8 mph 21.9 mph 0.00 in Snow Light Snow
11:38 AM 17.6 °F 4.3 °F 10.4 °F 73% 30.11 in 1.8 mi West 12.7 mph 20.7 mph 0.00 in Snow Light Snow
11:45 AM 17.6 °F 3.2 °F 10.4 °F 73% 30.11 in 3.0 mi West 15.0 mph 21.9 mph 0.00 in Snow Light Snow
11:52 AM 17.6 °F 5.0 °F 10.4 °F 73% 30.12 in 4.0 mi WSW 11.5 mph 21.9 mph N/A Snow Light Snow
12:52 PM 19.4 °F 7.9 °F 12.2 °F 74% 30.12 in 6.0 mi West 10.4 mph - N/A Snow Light Snow
1:34 PM 19.4 °F 6.6 °F 12.2 °F 74% 30.12 in 1.8 mi WSW 12.7 mph 24.2 mph 0.00 in Snow Light Snow
1:43 PM 19.4 °F 6.0 °F 12.2 °F 74% 30.12 in 4.0 mi WSW 13.8 mph 20.7 mph 0.00 in Snow Light Snow
1:52 PM 19.9 °F 7.3 °F 12.0 °F 71% 30.19 in 4.0 mi West 12.7 mph 24.2 mph 0.00 in   Haze
2:52 PM 19.9 °F 7.9 °F 12.0 °F 71% 30.20 in 6.0 mi West 11.5 mph 18.4 mph 0.00 in Snow Light Snow
3:00 PM 19.4 °F 7.2 °F 10.4 °F 68% 30.13 in 8.0 mi West 11.5 mph 19.6 mph 0.00 in Snow Light Snow
3:52 PM 19.9 °F 9.3 °F 12.9 °F 74% 30.23 in 5.0 mi West 9.2 mph 23.0 mph 0.00 in Snow Light Snow
3:57 PM 19.4 °F 7.9 °F 12.2 °F 74% 30.16 in 1.5 mi West 10.4 mph 17.3 mph 0.00 in Snow Light Snow
4:49 PM 19.4 °F 7.2 °F 12.2 °F 74% 30.17 in 6.0 mi West 11.5 mph 18.4 mph 0.00 in Snow Light Snow
4:52 PM 19.9 °F 8.6 °F 12.9 °F 74% 30.24 in 8.0 mi West 10.4 mph - 0.00 in   Overcast
5:28 PM 19.4 °F 11.5 °F 15.8 °F 86% 30.17 in 2.5 mi West 5.8 mph - 0.00 in Snow Light Snow
5:38 PM 19.4 °F 10.4 °F 15.8 °F 86% 30.17 in 4.0 mi West 6.9 mph - 0.00 in Snow Light Snow
5:52 PM 19.4 °F 10.4 °F 15.8 °F 86% 30.17 in 2.5 mi West 6.9 mph - N/A Snow Light Snow
6:00 PM 19.4 °F 9.5 °F 15.8 °F 86% 30.17 in 4.0 mi West 8.1 mph - 0.00 in Snow Light Snow
6:07 PM 19.4 °F 11.5 °F 15.8 °F 86% 30.17 in 2.5 mi West 5.8 mph - 0.00 in Snow Light Snow
6:11 PM 19.4 °F 10.4 °F 15.8 °F 86% 30.17 in 4.0 mi West 6.9 mph - 0.00 in Snow Light Snow
6:52 PM 19.9 °F 11.1 °F 15.1 °F 81% 30.25 in 4.0 mi West 6.9 mph - 0.00 in Snow Light Snow
7:17 PM 19.4 °F 11.5 °F 15.8 °F 86% 30.19 in 2.5 mi West 5.8 mph - 0.00 in Snow Light Snow
7:31 PM 19.4 °F 11.5 °F 15.8 °F 86% 30.20 in 1.2 mi West 5.8 mph - 0.00 in Snow Light Snow
7:41 PM 19.4 °F 11.5 °F 17.6 °F 93% 30.19 in 3.0 mi WSW 5.8 mph - 0.00 in Snow Light Snow
7:52 PM 19.4 °F 10.4 °F 15.8 °F 86% 30.19 in 4.0 mi West 6.9 mph - N/A Snow Light Snow
8:28 PM 19.4 °F 8.6 °F 15.8 °F 86% 30.19 in 4.0 mi West 9.2 mph - 0.00 in Snow Light Snow
8:47 PM 19.4 °F 10.4 °F 15.8 °F 86% 30.19 in 2.5 mi West 6.9 mph - 0.00 in Snow Light Snow
8:52 PM 19.0 °F 8.2 °F 16.0 °F 88% 30.26 in 2.5 mi West 9.2 mph - 0.00 in Snow Light Snow
9:07 PM 19.4 °F 10.4 °F 15.8 °F 86% 30.20 in 1.8 mi West 6.9 mph - 0.00 in Snow Light Snow
9:28 PM 19.4 °F 10.4 °F 15.8 °F 86% 30.20 in 3.0 mi West 6.9 mph - 0.00 in Snow Light Snow
9:48 PM 19.4 °F 7.9 °F 15.8 °F 86% 30.19 in 4.0 mi West 10.4 mph - 0.00 in Snow Light Snow
9:52 PM 19.4 °F 7.9 °F 15.8 °F 86% 30.19 in 3.0 mi West 10.4 mph - N/A Snow Light Snow
10:31 PM 19.4 °F 8.6 °F 15.8 °F 86% 30.19 in 9.0 mi NW 9.2 mph - 0.00 in   Overcast
10:47 PM 19.4 °F 7.2 °F 15.8 °F 86% 30.19 in 6.0 mi NW 11.5 mph 42.6 mph 0.00 in Snow Light Snow
10:52 PM 19.0 °F 7.5 °F 15.1 °F 85% 30.26 in 6.0 mi NW 10.4 mph - 0.00 in Snow Light Snow
11:03 PM 17.6 °F 7.3 °F 15.8 °F 93% 30.19 in 2.5 mi WNW 8.1 mph - 0.00 in Snow Light Snow
11:14 PM 17.6 °F 9.3 °F 15.8 °F 93% 30.19 in 6.0 mi WNW 5.8 mph - 0.00 in Snow Light Snow
11:52 PM 18.0 °F 9.8 °F 14.0 °F 84% 30.26 in 9.0 mi West 5.8 mph - 0.00 in Snow Light Snow